weather.gov     
National Weather Service

Regional Weather Roundup
NWS Homepage
This page is being discontinued on March 12, 2014.
The same data is available at this site. Please update your bookmarks.
Thank you, and we apologize for the inconvenience.
Please send an email to SR-SRH.Webmaster@noaa.gov with any concerns.


Current Version
Previous Version:    01  02  03  04  05  06  07  08  09  10  11  12  13  14  15  16  17  18  19  20  21  22  23  24  25  26  27  28  29  30  
   31  32  33  34  35  36  37  38  39  40  41  42  43  44  45  46  47  48  49  50  51  52  53  54  
[Printable]
061
ASUS44 KMEG 191010
RWRTN
TENNESSEE HOURLY STATE WEATHER ROUNDUP
NATIONAL WEATHER SERVICE MEMPHIS TN
500 AM CDT SAT APR 19 2014

TNZ002-004-019-021-049-052-054-088>092-191100-
WEST TENNESSEE

CITY           SKY/WX    TMP DP  RH WIND       PRES   REMARKS
MEMPHIS INTL   PTCLDY    53  49  86 CALM      30.18S
NWS MEMPHIS      N/A     49 N/A N/A MISG        N/A
JACKSON        CLEAR     47  45  93 CALM      30.18S FOG
DYERSBURG      CLEAR     52  41  66 NE5       30.21R
UNION CITY     CLEAR     46  46 100 CALM      30.19R
PARIS          PTCLDY    43  39  85 CALM      30.19S
LEXINGTON      CLEAR     46  45  93 CALM      30.17S
SAVANNAH       CLEAR     43  43 100 CALM      30.17S
$$

TNZ008-025-027-028-033-062-065-066-191100-
NORTH MIDDLE TENNESSEE

CITY           SKY/WX    TMP DP  RH WIND       PRES   REMARKS
NASHVILLE      PTCLDY    48  45  89 CALM      30.18F
DICKSON        CLEAR     52  45  76 N6        30.18S
PORTLAND       PTCLDY    43  43 100 CALM      30.19R
CLARKSVILLE    PTCLDY    49  44  83 CALM      30.19S
SMYRNA         CLEAR     48  45  90 CALM      30.18F
MURFREESBORO   CLEAR     51  47  86 NW3       30.17S
COOKEVILLE     CLEAR     45  43  93 CALM      30.15S
LIVINGSTON     CLOUDY    51  41  69 NE3       30.18R
GALLATIN       CLEAR     45  44  96 CALM      30.19S
CROSSVILLE     CLOUDY    51  39  63 N7        30.16F
$$

TNZ061-075-076-078-094-096-097-191100-
SOUTH MIDDLE TENNESSEE

CITY           SKY/WX    TMP DP  RH WIND       PRES   REMARKS
LEWISBURG      CLEAR     46  43  90 NW3       30.16S
FAYETTEVILLE   CLOUDY    50  45  83 N8        30.14F
TULLAHOMA      CLEAR     46  43  87 CALM      30.16S
WINCHESTER     CLEAR     46  45  93 CALM      30.15S
MCMINNVILLE    CLEAR     45  45 100 CALM      30.15F
COLUMBIA       CLEAR     45  45 100 CALM      30.15F
SHELBYVILLE    CLEAR     48  45  87 N6        30.17S
$$

TNZ017-018-042-046-047-191100-
NORTHEAST TENNESSEE

CITY           SKY/WX    TMP DP  RH WIND       PRES   REMARKS
TRI CITIES     CLOUDY    50  35  56 E3        30.13S
ELIZABETHTON   MOSUNNY   46  39  76 CALM      30.13S
$$

TNZ012-013-036-069-073-074-191100-
CENTRAL EAST TENNESSEE

CITY           SKY/WX    TMP DP  RH WIND       PRES   REMARKS
KNOXVILLE      CLOUDY    51  41  68 E5        30.12R
OAK RIDGE      CLOUDY    51  42  71 CALM      30.14S
$$

TNZ083-085-099-191100-
SOUTHEAST TENNESSEE

CITY           SKY/WX    TMP DP  RH WIND       PRES   REMARKS
CHATTANOOGA    CLOUDY    55  46  71 CALM      30.12S
$$

SKY/WX REPORTED AS FAIR MEANS FEW OR NO CLOUDS BELOW
12 THOUSAND FEET.





U.S. Dept. of Commerce
NOAA National Weather Service
1325 East West Highway
Silver Spring, MD 20910
E-mail: w-nws.webmaster@noaa.gov
Page last modified: May 16, 2007
NATIONAL WEATHER SERVICE: for Safety, for Work, for Fun - FOR LIFE